Hourly Weather Roundup
Issued by NWS Central Illinois

Home | Current Version | Previous Version | Text Only | Print | Product List | Glossary On
Versions: 1 2 3 4 5 6 7 8 9 10 11 12 13 14 15 16 17 18 19 20 21 22 23 24 25 26 27 28 29 30 31 32 33 34 35 36 37 38 39 40 41 42 43 44 45 46 47 48 49 50
000
NZUS43 KILX 011110
HWRILX

AREA WEATHER ROUNDUP
NATIONAL WEATHER SERVICE, LINCOLN IL
600 AM CDT SAT AUG 01 2015


CITY           SKY/WX    TMP DP  RH WIND       PRES   REMARKS
BLOOMINGTON    CLEAR     64  58  81 W6        30.05S
CHAMPAIGN      CLEAR     59  56  89 W3        30.04R
DANVILLE       CLEAR     61  57  87 NW5       30.00S
DECATUR        CLEAR     66  56  70 N5        30.04S
EFFINGHAM      CLEAR     66  61  84 CALM      30.05R
FLORA          CLEAR     68  65  90 N3        30.03S
GALESBURG      CLEAR     58  56  96 CALM      30.04R
JACKSONVILLE   PTCLDY    65  63  93 W3        30.05R
LACON          CLEAR     59  57  92 CALM      30.02S
LAWRENCEVILLE  CLEAR     67  61  81 N7        30.02R
LITCHFIELD     PTCLDY    67  63  86 CALM      30.04R
$$


CITY           SKY/WX    TMP DP  RH WIND       PRES   REMARKS
LINCOLN        CLEAR     61  57  88 CALM      30.04S
MACOMB         CLEAR     59  58  96 CALM      30.06S
MATTOON        CLEAR     64  56  75 CALM      30.03S
MT CARMEL AP   CLEAR     66  63  88 CALM      30.02S
OLNEY-NOBLE AP CLEAR     64  63  94 CALM      30.03S
PARIS          CLEAR     57  56  96 CALM      30.04R
PEORIA         CLEAR     65  58  78 CALM      30.03S
PONTIAC        CLEAR     59  58  96 W3        30.03S
RANTOUL        CLEAR     61  58  90 W6        30.03S
ROBINSON       CLEAR     63  60  91 NW5       30.03S
SPRINGFIELD    PTCLDY    64  60  87 CALM      30.04S
TAYLORVILLE    PTCLDY    61  61 100 CALM      30.04S
$$

...REGIONAL REPORTS...


CITY           SKY/WX    TMP DP  RH WIND       PRES   REMARKS
CHICAGO O`HARE CLEAR     64  53  67 W8        29.98S
KANKAKEE       CLEAR     59  57  92 W3        30.02S
MOLINE         CLEAR     59  55  87 SW3       30.02S
MOUNT STERLING NOT AVBL
MOUNT VERNON   CLEAR     64  61  88 CALM      30.03S
PITTSFIELD     MOCLDY    68  65  91 CALM      30.06S
QUINCY         MOCLDY    68  67  96 CALM      30.05R
ROCKFORD       CLEAR     57  53  86 S5        30.02R
$$


CITY           SKY/WX    TMP DP  RH WIND       PRES   REMARKS
BURLINGTON     CLEAR     62  59  90 CALM      30.03F
CEDAR RAPIDS   CLEAR     57  57 100 S3        30.01F
DES MOINES     PTCLDY    69  64  84 CALM      30.02F
KIRKSVILLE     PTCLDY    69  63  81 E3        30.06S
OTTUMWA        CLEAR     62  62 100 SW3       30.02F
ST LOUIS       PTCLDY    74  67  78 CALM      30.04S
$$


CITY           SKY/WX    TMP DP  RH WIND       PRES   REMARKS
TERRE HAUTE    CLEAR     59  56  89 CALM      30.02S
EVANSVILLE     CLEAR     73  67  81 NW6       30.02R
INDIANAPOLIS   PTCLDY    63  58  83 NW7       29.99R
LAFAYETTE      CLEAR     58  56  93 CALM      30.01R
MADISON        PTCLDY    63  54  72 VRB3      29.97S
MILWAUKEE      CLEAR     66  51  58 W7        29.96S
$$





USA.gov is the U.S. government's official web portal to all federal, state and local government web resources and services.